TimeCST,TemperatureF,Dew PointF,Humidity,Sea Level PressureIn,VisibilityMPH,Wind Direction,Wind SpeedMPH,Gust SpeedMPH,PrecipitationIn,Events,Conditions,WindDirDegrees,DateUTC
6:00 AM,74,72,91,29.87,12,East,2.3,,,,Overcast,100,2013-05-24 12:00:00
6:00 AM,75.2,71.6,89,29.86,6.2,East,2.3,-,N/A,,Overcast,100,2013-05-24 12:00:00
7:00 AM,77.0,73.4,89,29.88,6.2,Calm,Calm,-,N/A,,Overcast,0,2013-05-24 13:00:00
8:00 AM,78.8,73.4,83,29.89,6.2,East,3.5,-,N/A,,Overcast,80,2013-05-24 14:00:00
9:00 AM,83,74,66,29.92,12,South,3.5,,,,Overcast,170,2013-05-24 15:00:00
9:00 AM,84.2,73.4,70,29.91,6.2,South,3.5,-,N/A,,Mostly Cloudy,170,2013-05-24 15:00:00
10:00 AM,86.0,73.4,66,29.90,6.2,SSW,2.3,-,N/A,,Mostly Cloudy,210,2013-05-24 16:00:00
11:00 AM,86.0,71.6,62,29.87,6.2,SSW,2.3,-,N/A,,Mostly Cloudy,200,2013-05-24 17:00:00
12:00 PM,87,72,54,29.86,12,SW,4.6,,,,Overcast,220,2013-05-24 18:00:00
12:00 PM,87.8,73.4,62,29.85,6.2,SW,4.6,-,N/A,,Scattered Clouds,220,2013-05-24 18:00:00
1:00 PM,87.8,71.6,58,29.82,6.2,WSW,5.8,-,N/A,,Scattered Clouds,250,2013-05-24 19:00:00
1:10 PM,84.2,73.4,70,29.81,6.2,West,10.4,-,N/A,Rain,Rain,280,2013-05-24 19:10:00
2:00 PM,80.6,73.4,79,29.81,1.9,SSW,12.7,-,N/A,Rain-Thunderstorm,Light Thunderstorms and Rain,210,2013-05-24 20:00:00
2:05 PM,73.4,71.6,94,29.83,0.1,South,26.5,-,N/A,Rain-Thunderstorm,Thunderstorms and Rain,190,2013-05-24 20:05:00
2:30 PM,71.6,69.8,94,29.81,5.0,NW,10.4,-,N/A,Rain-Thunderstorm,Light Thunderstorms and Rain,310,2013-05-24 20:30:00
3:00 PM,73,71,92,29.82,9,East,3.5,,,Rain-Thunderstorm,Thunderstorms and Rain,100,2013-05-24 21:00:00
3:00 PM,73.4,71.6,94,29.81,6.2,East,3.5,-,N/A,,Drizzle,100,2013-05-24 21:00:00
4:00 PM,73.4,73.4,100,29.82,5.6,NE,9.2,-,N/A,Rain,Rain,40,2013-05-24 22:00:00
5:00 PM,73.4,73.4,100,29.82,6.2,North,4.6,-,N/A,Rain,Light Rain,10,2013-05-24 23:00:00
6:00 PM,75,73,91,29.84,12,ESE,3.5,,,,Overcast,110,2013-05-25 00:00:00
6:00 PM,75.2,73.4,94,29.83,6.2,ESE,3.5,-,N/A,,Mostly Cloudy,110,2013-05-25 00:00:00
7:00 PM,75.2,73.4,94,29.86,6.2,South,3.5,-,N/A,,Mostly Cloudy,180,2013-05-25 01:00:00
8:00 PM,75.2,73.4,94,29.89,6.2,SSE,3.5,-,N/A,,Overcast,160,2013-05-25 02:00:00